177,2014-05-10 23:07:00,1399763220,60.26972,-3.90541,3,7,2008-00-00 22:05:22,,10.007,29,10.8,0,0,60.2804,-3.9604,115,1
177,2014-05-10 23:08:08,1399763288,60.26972,-3.90541,3,3,2008-00-00 22:05:22,,10.007,29,10.8,0,0,60.2804,-3.9604,185,2
28,2014-05-04 18:05:14,1399226714,59.71757,-5.69645,5,1,2014-05-04 18:05:35,1399226735,9.835,10,10.9,0,0,59.7568,-5.666,3,5
29,2014-05-04 19:05:12,1399230312,59.70011,-4.55126,92,1,2014-05-04 19:05:11,1399230311,9.878,10,10.9,0,0,59.7563,-5.6529,3,5
30,2014-05-04 20:05:13,1399233913,59.80046,-5.63967,9,1,2014-05-04 20:05:10,1399233910,9.835,10,10.9,0,0,59.7545,-5.638,3,4
31,2014-05-04 21:05:12,1399237512,59.74174,-5.55494,2,0,2014-05-04 21:05:11,1399237511,9.792,25,10.9,0,0,59.7547,-5.6192,3,5
32,2014-05-04 22:06:35,1399241195,59.69472,-8.63268,185,0,2014-05-04 22:05:33,1399241133,9.749,25,10.9,0,0,59.7548,-5.5978,90,5
33,2014-05-04 23:05:28,1399244728,59.72365,-5.55494,6,1,2014-05-04 23:05:09,1399244709,9.792,25,10.9,0,0,59.7561,-5.5762,20,3
34,2014-05-05 00:05:39,1399248339,59.76958,-5.63268,3,2,2014-05-05 00:05:41,1399248341,9.749,25,10.9,0,0,59.7583,-5.5554,19,3
35,2014-05-05 01:05:29,1399251929,59.72365,-5.55494,4,0,2014-05-05 01:05:58,1399251958,9.706,29,10.9,0,0,59.7613,-5.5382,19,5
36,2014-05-05 02:05:17,1399255517,59.79812,-4.92344,75,0,2014-05-05 02:05:03,1399255503,9.706,29,10.9,0,0,59.7646,-5.5255,3,5
37,2014-05-05 03:05:14,1399259114,59.77261,-5.56183,3,0,2014-05-05 03:05:12,1399259112,9.749,29,10.9,0,0,59.7679,-5.5178,3,5
38,2014-05-05 04:05:11,1399262711,59.78726,-4.34953,97,0,2014-05-05 04:05:01,1399262701,9.749,29,10.9,0,0,59.7716,-5.5138,3,3
39,2014-05-05 05:05:19,1399266319,59.80648,-5.49778,5,0,2014-05-05 05:05:09,1399266309,9.749,29,10.9,0,0,59.7757,-5.5122,3,1
40,2014-05-05 06:05:12,1399269912,59.80648,-5.49778,15,0,2014-05-05 06:05:10,1399269910,9.749,29,10.9,0,0,59.7796,-5.5111,3,3
41,2014-05-05 07:05:11,1399273511,59.77854,-5.42008,1,0,2014-05-05 07:05:44,1399273544,9.792,29,10.9,0,0,59.7822,-5.5085,3,5
42,2014-05-05 08:05:12,1399277112,59.77261,-5.56183,2,0,2014-05-05 08:05:10,1399277110,9.792,29,10.9,0,0,59.7851,-5.5044,3,5
43,2014-05-05 09:05:19,1399280719,59.82454,-5.49778,8,1,2014-05-05 09:05:10,1399280710,9.835,31,10.9,0,0,59.7892,-5.4951,3,5
44,2014-05-05 10:05:11,1399284311,59.82454,-5.49778,8,0,2014-05-05 10:05:34,1399284334,9.835,31,10.9,0,0,59.791,-5.4808,3,5
45,2014-05-05 11:05:10,1399287910,59.77854,-5.42008,4,0,2014-05-05 11:05:11,1399287911,9.878,31,10.9,0,0,59.7931,-5.4647,3,5
46,2014-05-05 12:05:08,1399291508,59.77559,-5.49096,3,2,2014-05-05 12:05:27,1399291527,9.878,31,10.9,0,0,59.796,-5.4463,3,5
47,2014-05-05 13:05:09,1399295109,59.83041,-5.35583,5,2,2014-05-05 13:05:47,1399295147,9.878,28,10.9,0,0,59.7988,-5.4292,3,5
48,2014-05-05 14:05:19,1399298719,59.77854,-5.42008,4,2,2014-05-05 14:05:02,1399298702,9.835,28,10.8,0,0,59.8019,-5.4155,3,5
49,2014-05-05 15:05:08,1399302308,59.97416,-8.34295,185,3,2014-05-05 15:05:13,1399302313,9.835,28,10.9,0,0,59.8044,-5.4073,3,5
50,2014-05-05 16:05:12,1399305912,59.78146,-5.34918,2,2,2014-05-05 16:05:16,1399305916,9.835,28,10.9,0,0,59.8068,-5.404,3,5
51,2014-05-05 17:05:16,1399309516,59.94742,-7.75549,150,1,2014-05-05 17:05:34,1399309534,9.835,26,10.9,0,0,59.8097,-5.4056,3,4
52,2014-05-05 18:05:10,1399313110,59.80648,-5.49778,1,2,2014-05-05 18:05:10,1399313110,9.835,26,10.9,0,0,59.8123,-5.4076,3,1
53,2014-05-05 19:05:11,1399316711,59.92194,-7.0984,131,1,2014-05-05 19:05:10,1399316710,9.835,26,10.9,0,0,59.8152,-5.4086,3,5
54,2014-05-05 20:05:26,1399320326,59.83041,-5.35583,2,1,2014-05-05 20:05:14,1399320314,9.835,26,10.9,0,0,59.8188,-5.4069,18,5
55,2014-05-05 21:05:12,1399323912,59.77854,-5.42008,5,2,2014-05-05 21:05:44,1399323944,9.835,29,10.9,0,0,59.8227,-5.4017,3,5
56,2014-05-05 22:05:12,1399327512,59.77854,-5.42008,13,1,2014-05-05 22:05:09,1399327509,9.878,29,10.9,0,0,59.8269,-5.3921,3,3
57,2014-05-05 23:05:10,1399331110,59.83041,-5.35583,3,2,2014-05-05 23:05:12,1399331112,9.835,29,10.9,0,0,59.832,-5.377,3,5
58,2014-05-06 00:05:14,1399334714,59.78408,-7.78762,153,1,2014-05-06 00:05:13,1399334713,9.835,29,10.9,0,0,59.8342,-5.3576,3,5
59,2014-05-06 01:05:21,1399338321,59.83328,-5.28482,2,1,2014-05-06 01:05:38,1399338338,9.835,31,10.9,0,0,59.8361,-5.3393,3,5
60,2014-05-06 02:05:12,1399341912,59.74072,-7.13384,122,1,2014-05-06 02:05:02,1399341902,9.792,31,10.9,0,0,59.8408,-5.3226,3,4
61,2014-05-06 03:05:14,1399345514,59.83041,-5.35583,2,1,2014-05-06 03:05:36,1399345536,9.792,31,10.9,0,0,59.8458,-5.308,3,5
62,2014-05-06 04:05:09,1399349109,59.83612,-5.2138,3,0,2014-05-06 04:05:10,1399349110,9.749,31,10.9,0,0,59.8492,-5.2987,3,2
63,2014-05-06 05:05:10,1399352710,59.86704,-5.22029,1,7,2014-05-06 05:05:13,1399352713,9.749,32,10.9,0,0,59.8527,-5.2932,3,5
64,2014-05-06 06:05:20,1399356320,59.92535,-4.08052,96,1,2014-05-06 06:05:08,1399356308,9.706,32,10.9,0,0,59.8558,-5.2908,3,5
65,2014-05-06 07:05:27,1399359927,59.83328,-5.28482,5,1,2014-05-06 07:05:12,1399359912,9.706,32,10.9,0,0,59.8596,-5.2895,18,5
66,2014-05-06 08:05:09,1399363509,59.88222,-5.2914,9,186,2014-05-06 08:05:04,1399363504,9.749,32,10.9,0,0,59.8634,-5.2836,3,5
67,2014-05-06 09:05:26,1399367126,59.8642,-5.2914,3,187,2014-05-06 09:05:24,1399367124,9.835,27,10.9,0,0,59.8661,-5.2737,18,5
68,2014-05-06 10:05:12,1399370712,59.83328,-5.28482,6,188,2014-05-06 10:05:44,1399370744,9.835,27,10.9,0,0,59.868,-5.2607,3,5
69,2014-05-06 11:05:11,1399374311,59.86704,-5.22029,2,189,2014-05-06 11:05:02,1399374302,9.964,27,10.9,0,0,59.8722,-5.2482,3,5
70,2014-05-06 12:05:12,1399377912,59.88222,-5.2914,2,191,2014-05-06 12:05:37,1399377937,10.05,27,10.9,0,0,59.8771,-5.233,3,5
71,2014-05-06 13:05:17,1399381517,59.88506,-5.22029,2,2,2014-05-06 13:05:12,1399381512,10.136,27,10.9,0,0,59.8827,-5.2153,3,5
72,2014-05-06 14:05:11,1399385111,59.86985,-5.14917,2,0,2014-05-06 14:05:02,1399385102,10.222,27,10.9,0,0,59.889,-5.1989,3,5
73,2014-05-06 15:05:12,1399388712,60.2206,-10.09166,283,1,2014-05-06 15:05:08,1399388708,10.265,27,10.9,0,0,59.8957,-5.1851,3,5
74,2014-05-06 16:05:12,1399392312,59.91599,-5.2268,2,1,2014-05-06 16:05:14,1399392314,10.179,27,10.9,0,0,59.9034,-5.1714,3,5
75,2014-05-06 17:05:10,1399395910,59.91599,-5.2268,3,1,2014-05-06 17:05:40,1399395940,10.179,33,10.9,0,0,59.9093,-5.1536,3,5
76,2014-05-06 18:05:27,1399399527,59.86985,-5.14917,2,1,2014-05-06 18:05:23,1399399523,9.921,33,10.9,0,0,59.914,-5.1372,18,5
77,2014-05-06 19:05:18,1399403118,59.9895,-6.7517,116,1,2014-05-06 19:05:09,1399403109,10.007,33,10.9,0,0,59.9186,-5.1238,3,5
78,2014-05-06 20:05:12,1399406712,59.92157,-5.08436,3,2,2014-05-06 20:05:33,1399406733,10.007,33,10.9,0,0,59.9227,-5.1097,3,3
79,2014-05-06 21:05:12,1399410312,59.89063,-5.07803,4,2,2014-05-06 21:05:10,1399410310,9.921,26,10.9,0,0,59.9255,-5.0942,3,5
80,2014-05-06 22:05:22,1399413922,59.92157,-5.08436,2,2,2014-05-06 22:05:42,1399413942,9.878,26,10.9,0,0,59.9278,-5.0767,17,3
81,2014-05-06 23:05:19,1399417519,59.92431,-5.01311,2,2,2014-05-06 23:05:08,1399417508,9.878,26,10.9,0,0,59.9306,-5.0576,3,5
82,2014-05-07 00:05:11,1399421111,59.927,-4.94186,3,2,2014-05-07 00:05:12,1399421112,9.835,26,10.8,0,0,59.9346,-5.036,3,5
83,2014-05-07 01:05:12,1399424712,59.92157,-5.08436,1,7,2014-05-07 01:05:32,1399424732,9.835,29,10.9,0,0,59.9388,-5.0118,3,5
84,2014-05-07 02:05:12,1399428312,59.92431,-5.01311,2,1,2014-05-07 02:05:05,1399428305,9.835,29,10.9,0,0,59.9433,-4.9883,3,5
85,2014-05-07 03:05:15,1399431915,59.927,-4.94186,2,6,2014-05-07 03:05:05,1399431905,9.835,29,10.9,0,0,59.9457,-4.9646,3,1
86,2014-05-07 04:05:10,1399435510,59.88813,-6.80587,121,3,2014-05-07 04:05:04,1399435504,9.835,29,10.9,0,0,59.9491,-4.9432,3,5
87,2014-05-07 05:05:08,1399439108,59.95797,-4.94802,2,2,2014-05-07 05:05:02,1399439102,9.835,25,10.9,0,0,59.952,-4.9283,3,5
88,2014-05-07 06:05:10,1399442710,59.87411,-5.79589,102,1,2014-05-07 06:05:03,1399442703,9.835,25,10.9,0,0,59.9544,-4.9153,3,5
89,2014-05-07 07:05:12,1399446312,59.9786,-4.87666,3,1,2014-05-07 07:05:02,1399446302,9.835,25,10.9,0,0,59.9573,-4.9065,3,5
90,2014-05-07 08:06:08,1399449968,59.74641,-0.64055,259,2,2014-05-07 08:05:11,1399449911,9.878,25,10.9,0,0,59.96,-4.9004,61,4
91,2014-05-07 09:05:11,1399453511,59.9786,-4.87666,2,2,2014-05-07 09:05:10,1399453510,9.878,31,10.8,0,0,59.9632,-4.8946,3,3
92,2014-05-07 10:05:11,1399457111,59.85912,0.14288,288,2,2014-05-07 10:05:35,1399457135,9.878,31,10.8,0,0,59.967,-4.8877,3,5
93,2014-05-07 11:05:20,1399460720,59.97594,-4.94802,2,2,2014-05-07 11:05:32,1399460732,9.921,31,10.8,0,0,59.9718,-4.8769,3,5
94,2014-05-07 12:05:27,1399464327,59.95026,-4.79929,2,1,2014-05-07 12:05:10,1399464310,9.921,31,10.9,0,0,59.9776,-4.8628,19,5
95,2014-05-07 13:06:33,1399467993,60.00958,-4.88276,3,2,2014-05-07 13:05:14,1399467914,9.878,28,10.9,0,0,59.9819,-4.8437,76,1
96,2014-05-07 14:05:11,1399471511,59.9786,-4.87666,3,2,2014-05-07 14:05:04,1399471504,9.921,28,10.9,0,0,59.9861,-4.8235,3,5
97,2014-05-07 15:05:09,1399475109,59.98381,-4.73389,3,2,2014-05-07 15:05:33,1399475133,9.921,28,10.8,0,0,59.9905,-4.8022,3,5
98,2014-05-07 16:05:12,1399478712,59.98381,-4.73389,3,3,2014-05-07 16:05:10,1399478710,9.921,28,10.8,0,0,59.9952,-4.7832,3,5
99,2014-05-07 17:05:12,1399482312,59.98122,-4.80529,10,1,2014-05-07 17:05:03,1399482303,9.964,29,10.8,0,0,60.0003,-4.766,3,5
100,2014-05-07 18:05:31,1399485931,59.98381,-4.73389,7,1,2014-05-07 18:05:38,1399485938,9.921,29,10.8,0,0,60.005,-4.7507,22,5
101,2014-05-07 19:05:08,1399489508,60.01986,-4.59681,4,4,2014-05-07 19:05:49,1399489549,9.921,29,10.9,0,0,60.009,-4.7395,3,5
102,2014-05-07 20:05:11,1399493111,60.03273,-4.73981,8,2,2014-05-07 20:05:12,1399493112,9.921,29,10.9,0,0,60.0121,-4.7292,3,5
103,2014-05-07 21:05:12,1399496712,59.98635,-4.66249,2,1,2014-05-07 21:05:28,1399496728,9.921,28,10.8,0,0,60.0149,-4.7205,3,5
104,2014-05-07 22:05:08,1399500308,59.98635,-4.66249,2,2,2014-05-07 22:05:09,1399500309,9.921,28,10.9,0,0,60.0173,-4.7115,3,5
105,2014-05-07 23:05:58,1399503958,59.98635,-4.66249,4,2,2014-05-07 23:05:10,1399503910,9.921,28,10.8,0,0,60.019,-4.7004,40,5
106,2014-05-08 00:05:26,1399507526,60.0148,-4.73981,3,2,2014-05-08 00:05:44,1399507544,9.921,28,10.9,0,0,60.0206,-4.687,3,5
107,2014-05-08 01:05:09,1399511109,59.98635,-4.66249,8,2,2014-05-08 01:05:18,1399511118,9.921,24,10.8,0,0,60.0214,-4.6709,3,3
108,2014-05-08 02:05:12,1399514712,60.0378,-4.59681,4,2,2014-05-08 02:05:43,1399514743,9.921,24,10.8,0,0,60.0221,-4.6547,3,5
109,2014-05-08 03:05:10,1399518310,60.03528,-4.66832,3,2,2014-05-08 03:05:09,1399518309,9.921,24,10.8,0,0,60.0227,-4.6389,3,5
110,2014-05-08 04:05:22,1399521922,59.85365,-8.67557,235,2,2014-05-08 04:05:33,1399521933,9.921,24,10.8,0,0,60.0238,-4.6248,3,5
111,2014-05-08 05:05:50,1399525550,60.0688,-4.60256,6,2,2014-05-08 05:05:03,1399525503,9.921,27,10.8,0,0,60.025,-4.6144,41,2
112,2014-05-08 06:05:12,1399529112,60.01213,-5.60354,115,2,2014-05-08 06:05:13,1399529113,9.921,27,10.8,0,0,60.0273,-4.6066,3,5
113,2014-05-08 07:05:14,1399532714,60.02233,-4.52528,2,2,2014-05-08 07:05:43,1399532743,9.964,27,10.8,0,0,60.0299,-4.6037,3,5
114,2014-05-08 08:05:11,1399536311,59.93624,-2.36211,142,2,2014-05-08 08:05:12,1399536312,9.964,27,10.8,0,0,60.033,-4.6041,3,5
115,2014-05-08 09:05:13,1399539913,60.01735,-4.66832,2,2,2014-05-08 09:05:03,1399539903,10.007,31,10.8,0,0,60.0368,-4.6063,3,5
116,2014-05-08 10:05:12,1399543512,60.06904,-2.15566,156,2,2014-05-08 10:05:43,1399543543,10.007,31,10.8,0,0,60.0405,-4.6076,3,5
117,2014-05-08 11:05:12,1399547112,60.0378,-4.59681,2,2,2014-05-08 11:05:11,1399547111,10.007,31,10.8,0,0,60.0455,-4.6069,3,5
118,2014-05-08 12:05:11,1399550711,60.03528,-4.66832,5,2,2014-05-08 12:05:09,1399550709,10.007,31,10.9,0,0,60.0495,-4.6037,3,5
119,2014-05-08 13:05:12,1399554312,60.0378,-4.59681,3,2,2014-05-08 13:05:32,1399554332,10.007,25,10.9,0,0,60.0543,-4.5945,3,5
120,2014-05-08 14:05:26,1399557926,60.06629,-4.67416,3,2,2014-05-08 14:05:12,1399557912,10.093,25,10.9,0,0,60.0588,-4.5819,16,5
121,2014-05-08 15:05:12,1399561512,60.01986,-4.59681,8,2,2014-05-08 15:05:33,1399561533,10.179,25,10.8,0,0,60.0639,-4.5662,3,5
122,2014-05-08 16:05:41,1399565141,60.07372,-4.45932,2,2,2014-05-08 16:05:39,1399565139,10.222,25,10.8,0,0,60.0691,-4.549,35,5
123,2014-05-08 17:05:09,1399568709,60.0427,-4.45374,2,3,2014-05-08 17:05:09,1399568709,10.222,26,10.8,0,0,60.0737,-4.533,3,5
124,2014-05-08 18:05:14,1399572314,60.0378,-4.59681,2,2,2014-05-08 18:05:43,1399572343,10.222,26,10.8,0,0,60.0784,-4.5191,3,5
125,2014-05-08 19:05:26,1399575926,60.1202,-4.53663,11,3,2014-05-08 19:05:43,1399575943,10.179,26,10.8,0,0,60.0826,-4.5086,3,1
126,2014-05-08 20:05:12,1399579512,60.07372,-4.45932,1,2,2014-05-08 20:05:12,1399579512,10.136,26,10.8,0,0,60.0865,-4.5022,3,2
127,2014-05-08 21:06:01,1399583161,60.1202,-4.53663,4,2,2014-05-08 21:05:43,1399583143,10.093,25,10.8,0,0,60.0901,-4.4977,53,5
128,2014-05-08 22:05:21,1399586721,60.07372,-4.45932,6,3,2014-05-08 22:05:12,1399586712,10.05,25,10.9,0,0,60.0935,-4.4942,3,5
129,2014-05-08 23:05:26,1399590326,60.07372,-4.45932,7,1,2014-05-08 23:05:03,1399590303,10.007,25,10.8,0,0,60.0974,-4.4904,18,5
130,2014-05-09 00:05:11,1399593911,60.12264,-4.46492,4,2,2014-05-09 00:05:11,1399593911,10.007,25,10.8,0,0,60.1009,-4.4848,3,5
131,2014-05-09 01:05:18,1399597518,60.07372,-4.45932,2,2,2014-05-09 01:05:31,1399597531,10.007,27,10.8,0,0,60.1048,-4.4759,3,5
132,2014-05-09 02:05:10,1399601110,60.07612,-4.38768,3,2,2014-05-09 02:05:42,1399601142,10.007,27,10.8,0,0,60.1092,-4.4635,3,3
133,2014-05-09 03:05:11,1399604711,60.07372,-4.45932,2,2,2014-05-09 03:05:31,1399604731,9.964,27,10.8,0,0,60.1136,-4.4474,3,5
134,2014-05-09 04:05:39,1399608339,60.12264,-4.46492,2,2,2014-05-09 04:05:03,1399608303,9.964,27,10.8,0,0,60.1176,-4.4279,21,4
135,2014-05-09 05:05:11,1399611911,60.12505,-4.39319,2,2,2014-05-09 05:05:10,1399611910,9.921,29,10.8,0,0,60.1212,-4.4086,3,5
136,2014-05-09 06:05:11,1399615511,60.00494,-8.35336,232,2,2014-05-09 06:05:09,1399615509,9.921,29,10.8,0,0,60.1245,-4.3902,3,5
137,2014-05-09 07:05:12,1399619112,60.07612,-4.38768,5,3,2014-05-09 07:05:44,1399619144,9.921,29,10.9,0,0,60.1268,-4.3754,3,5
138,2014-05-09 08:05:18,1399622718,60.14875,-4.61412,481,1,2014-05-09 08:05:03,1399622703,9.921,29,10.9,0,0,60.1292,-4.3664,3,5
139,2014-05-09 09:05:09,1399626309,60.15609,-4.39871,4,2,2014-05-09 09:05:21,1399626321,9.964,30,10.8,0,0,60.1315,-4.3615,3,5
140,2014-05-09 10:05:14,1399629914,59.9807,-1.43389,177,2,2014-05-09 10:05:44,1399629944,9.964,30,10.8,0,0,60.1338,-4.3594,3,5
141,2014-05-09 11:05:10,1399633510,60.12741,-4.32144,2,2,2014-05-09 11:05:08,1399633508,9.964,30,10.8,0,0,60.1364,-4.3582,3,5
142,2014-05-09 12:05:15,1399637115,60.06429,-1.07821,192,1,2014-05-09 12:05:36,1399637136,10.007,30,10.8,0,0,60.139,-4.3559,3,5
143,2014-05-09 13:05:12,1399640712,60.15609,-4.39871,2,1,2014-05-09 13:05:11,1399640711,10.007,34,10.8,0,0,60.1423,-4.3515,3,5
144,2014-05-09 14:05:19,1399644319,60.12741,-4.32144,2,3,2014-05-09 14:05:11,1399644311,10.007,34,10.8,0,0,60.1459,-4.3423,3,4
145,2014-05-09 15:05:11,1399647911,60.12974,-4.24968,2,2,2014-05-09 15:05:00,1399647900,10.007,34,10.8,0,0,60.1508,-4.3292,3,5
146,2014-05-09 16:05:13,1399651513,60.12505,-4.39319,2,2,2014-05-09 16:05:11,1399651511,10.05,34,10.8,0,0,60.1558,-4.3115,3,5
147,2014-05-09 17:05:09,1399655109,60.15846,-4.32687,2,2,2014-05-09 17:05:12,1399655112,10.093,28,10.8,0,0,60.1611,-4.2905,3,5
148,2014-05-09 18:05:26,1399658726,60.12974,-4.24968,2,1,2014-05-09 18:05:13,1399658713,10.05,28,10.8,0,0,60.1658,-4.27,18,5
149,2014-05-09 19:05:11,1399662311,60.12974,-4.24968,5,7,2014-05-09 19:05:43,1399662343,10.05,28,10.8,0,0,60.17,-4.2517,3,5
150,2014-05-09 20:05:11,1399665911,60.17865,-4.25502,3,2,2014-05-09 20:05:11,1399665911,10.05,28,10.8,0,0,60.174,-4.2374,3,5
151,2014-05-09 21:05:12,1399669512,60.16079,-4.25502,10,1,2014-05-09 21:05:06,1399669506,10.007,27,10.8,0,0,60.1779,-4.2269,3,5
152,2014-05-09 22:05:13,1399673113,60.16079,-4.25502,2,2,2014-05-09 22:05:03,1399673103,10.007,27,10.8,0,0,60.181,-4.2202,3,2
153,2014-05-09 23:05:12,1399676712,60.16079,-4.25502,3,1,2014-05-09 23:05:13,1399676713,10.007,27,10.8,0,0,60.184,-4.2158,3,5
154,2014-05-10 00:05:12,1399680312,60.16309,-4.18316,2,2,2014-05-10 00:05:33,1399680333,10.007,27,10.8,0,0,60.187,-4.2114,3,5
155,2014-05-10 01:05:08,1399683908,60.17865,-4.25502,2,2,2014-05-10 01:05:43,1399683943,10.007,28,10.8,0,0,60.1896,-4.2034,3,4
156,2014-05-10 02:05:10,1399687510,60.17865,-4.25502,2,2,2014-05-10 02:05:09,1399687509,10.007,28,10.8,0,0,60.1921,-4.1914,3,5
157,2014-05-10 03:05:12,1399691112,60.21427,-4.11646,2,1,2014-05-10 03:05:43,1399691143,9.964,28,10.8,0,0,60.1944,-4.1763,3,5
158,2014-05-10 04:05:08,1399694708,60.1832,-4.11129,2,2,2014-05-10 04:05:03,1399694703,10.007,28,10.8,0,0,60.1967,-4.1598,3,5
159,2014-05-10 05:05:09,1399698309,60.21201,-4.18843,2,2,2014-05-10 05:05:12,1399698312,10.007,27,10.8,0,0,60.199,-4.1399,3,3
160,2014-05-10 06:05:09,1399701909,60.1832,-4.11129,8,2,2014-05-10 06:05:10,1399701910,9.964,27,10.8,0,0,60.2015,-4.1218,3,5
161,2014-05-10 07:05:11,1399705511,60.21648,-4.04449,3,2,2014-05-10 07:05:25,1399705525,9.964,27,10.8,0,0,60.2037,-4.1051,3,5
162,2014-05-10 08:05:10,1399709110,60.18541,-4.0394,3,2,2014-05-10 08:05:25,1399709125,10.007,27,10.8,0,0,60.2057,-4.0932,3,5
163,2014-05-10 09:05:11,1399712711,60.21648,-4.04449,2,2,2014-05-10 09:05:44,1399712744,10.007,29,10.8,0,0,60.2078,-4.0866,3,5
164,2014-05-10 10:06:25,1399716385,60.18541,-4.0394,71,2,2014-05-10 10:05:44,1399716344,10.007,29,10.8,0,0,60.2101,-4.0847,67,5
165,2014-05-10 11:05:10,1399719910,60.21427,-4.11646,2,2,2014-05-10 11:05:44,1399719944,10.007,29,10.8,0,0,60.2125,-4.0865,3,5
166,2014-05-10 12:05:15,1399723515,60.21427,-4.11646,3,5,2014-05-10 12:05:38,1399723538,10.05,29,10.8,0,0,60.2151,-4.0899,3,4
167,2014-05-10 13:05:21,1399727121,60.26317,-4.12165,6,2,2014-05-10 13:05:11,1399727111,10.093,27,10.8,0,0,60.2181,-4.0921,3,4
168,2014-05-10 14:05:10,1399730710,60.21201,-4.18843,5,2,2014-05-10 14:05:12,1399730712,10.136,27,10.8,0,0,60.2222,-4.0902,3,2
169,2014-05-10 15:05:09,1399734309,60.21427,-4.11646,2,2,2014-05-10 15:05:02,1399734302,10.136,27,10.8,0,0,60.2274,-4.0822,3,5
170,2014-05-10 16:05:11,1399737911,60.21427,-4.11646,3,2,2014-05-10 16:05:10,1399737910,10.093,27,10.8,0,0,60.233,-4.0685,3,5
171,2014-05-10 17:05:08,1399741508,60.21648,-4.04449,4,2,2014-05-10 17:05:39,1399741539,10.093,29,10.8,0,0,60.24,-4.0503,3,5
172,2014-05-10 18:05:11,1399745111,60.21648,-4.04449,8,2,2014-05-10 18:05:08,1399745108,10.093,29,10.8,0,0,60.2467,-4.0307,3,5
173,2014-05-10 19:05:22,1399748722,60.26757,-3.9775,2,2,2014-05-10 19:05:08,1399748708,10.05,29,10.8,0,0,60.2538,-4.0092,3,5
174,2014-05-10 20:05:20,1399752320,60.29868,-3.98252,6,1,2014-05-10 20:05:14,1399752314,10.05,29,10.8,0,0,60.2607,-3.9921,3,4
175,2014-05-10 21:05:14,1399755914,60.26972,-3.90541,3,2,2014-05-10 21:05:10,1399755910,10.05,29,10.8,0,0,60.2677,-3.9768,3,3
176,2014-05-10 22:05:08,1399759508,60.29868,-3.98252,6,1,2014-05-10 22:05:12,1399759512,10.007,29,10.8,0,0,60.2742,-3.9664,3,1
178,2014-05-11 00:05:10,1399766710,60.29868,-3.98252,2,2,2014-05-11 00:05:49,1399766749,10.007,29,10.8,0,0,0,0,3,5
179,2014-05-11 01:05:21,1399770321,60.56728,0.36494,253,2,2014-05-11 01:05:39,1399770339,10.007,30,10.8,0,0,60.2945,-3.9514,3,5
180,2014-05-11 02:05:17,1399773917,60.30082,-3.91034,3,2,2014-05-11 02:05:12,1399773912,10.007,30,10.8,0,0,60.3022,-3.9433,3,5
181,2014-05-11 03:05:11,1399777511,60.34757,-3.98755,4,2,2014-05-11 03:05:08,1399777508,10.007,30,10.8,0,0,60.3105,-3.9275,3,5
182,2014-05-11 04:05:28,1399781128,60.30082,-3.91034,3,2,2014-05-11 04:05:12,1399781112,10.007,30,10.8,0,0,60.3189,-3.9067,18,4
183,2014-05-11 05:05:11,1399784711,60.35183,-3.84299,4,7,2014-05-11 05:05:38,1399784738,10.007,35,10.8,0,0,60.3271,-3.8787,3,3
184,2014-05-11 06:05:11,1399788311,60.35183,-3.84299,10,2,2014-05-11 06:05:14,1399788314,10.007,35,10.8,0,0,60.3342,-3.8468,3,5
185,2014-05-11 07:05:09,1399791909,60.32278,-3.76594,2,1,2014-05-11 07:05:13,1399791913,10.007,35,10.8,0,0,60.3404,-3.8165,3,5
186,2014-05-11 08:05:08,1399795508,60.50373,-6.49294,164,1,2014-05-11 08:05:05,1399795505,10.007,35,10.8,0,0,60.346,-3.7882,3,5
187,2014-05-11 09:05:13,1399799113,60.35183,-3.84299,1,1,2014-05-11 09:05:15,1399799115,10.007,31,10.8,0,0,60.3497,-3.7642,3,3
188,2014-05-11 10:05:11,1399802711,60.46197,-6.34019,170,1,2014-05-11 10:05:08,1399802708,10.007,31,10.8,0,0,60.3518,-3.7473,3,4
189,2014-05-11 11:05:11,1399806311,60.38505,-3.77547,5,2,2014-05-11 11:05:09,1399806309,10.007,31,10.8,0,0,60.3534,-3.7382,3,3
190,2014-05-11 12:05:12,1399809912,60.31659,-3.33245,78,2,2014-05-11 12:05:53,1399809953,10.007,31,10.8,0,0,60.3546,-3.734,3,5
191,2014-05-11 13:05:21,1399813521,60.35594,-3.69838,3,2,2014-05-11 13:05:02,1399813502,10.007,28,10.8,0,0,60.3558,-3.7324,3,5
192,2014-05-11 14:05:12,1399817112,60.3539,-3.77069,3,1,2014-05-11 14:05:10,1399817110,10.05,28,10.8,0,0,60.3583,-3.7306,3,5
193,2014-05-11 15:05:11,1399820711,60.32481,-3.69372,5,2,2014-05-11 15:05:14,1399820714,10.093,28,10.8,0,0,60.3601,-3.722,3,5
194,2014-05-11 16:05:38,1399824338,60.3539,-3.77069,3,3,2014-05-11 16:05:13,1399824313,10.136,28,10.8,0,0,60.3626,-3.711,22,5
195,2014-05-11 17:05:09,1399827909,60.35793,-3.62606,1,3,2014-05-11 17:05:12,1399827912,10.136,29,10.8,0,0,60.3653,-3.6933,3,5
196,2014-05-11 18:05:12,1399831512,60.22752,0.65024,246,1,2014-05-11 18:05:12,1399831512,10.093,29,10.8,0,0,60.3684,-3.6727,3,5
197,2014-05-11 19:06:13,1399835173,60.40682,-3.63065,5,2,2014-05-11 19:05:39,1399835139,10.093,29,10.8,0,0,60.3715,-3.6511,66,2
198,2014-05-11 20:05:09,1399838709,60.35988,-3.55373,2,1,2014-05-11 20:05:08,1399838708,10.05,29,10.8,0,0,60.3747,-3.6308,3,5
199,2014-05-11 21:05:18,1399842318,60.42301,-2.97844,80,2,2014-05-11 21:05:12,1399842312,10.05,30,10.8,0,0,60.3775,-3.6147,3,4
200,2014-05-11 22:05:25,1399845925,60.35793,-3.62606,4,2,2014-05-11 22:05:11,1399845911,10.05,30,10.8,0,0,60.3798,-3.6034,3,3
201,2014-05-11 23:05:19,1399849519,60.43602,-2.32545,108,1,2014-05-11 23:05:12,1399849512,10.007,30,10.8,0,0,60.3819,-3.5989,3,3
202,2014-05-12 00:05:20,1399853120,60.35793,-3.62606,3,2,2014-05-12 00:05:43,1399853143,10.007,30,10.8,0,0,60.3844,-3.5998,3,2
203,2014-05-12 01:05:21,1399856721,60.35793,-3.62606,3,2,2014-05-12 01:05:00,1399856700,10.007,29,10.8,0,0,0,0,3,3
204,2014-05-12 02:05:12,1399860312,60.35988,-3.55373,2,2,2014-05-12 02:05:35,1399860335,10.007,29,10.8,0,0,60.3913,-3.6059,3,3
205,2014-05-12 03:05:11,1399863911,60.35594,-3.69838,4,3,2014-05-12 03:05:09,1399863909,10.007,29,10.8,0,0,60.3956,-3.6064,3,5
206,2014-05-12 04:05:33,1399867533,60.43598,-3.70776,11,1,2014-05-12 04:05:08,1399867508,10.007,29,10.8,0,0,60.4008,-3.5997,22,4
207,2014-05-12 05:05:28,1399871128,60.40877,-3.55823,2,1,2014-05-12 05:05:54,1399871154,10.007,27,10.8,0,0,60.4066,-3.5885,20,5
208,2014-05-12 06:05:20,1399874720,60.41069,-3.48579,2,2,2014-05-12 06:05:14,1399874714,10.007,27,10.8,0,0,60.4131,-3.5724,3,5
209,2014-05-12 07:05:11,1399878311,60.40682,-3.63065,2,2,2014-05-12 07:05:10,1399878310,10.007,27,10.8,0,0,60.4193,-3.5536,3,5
210,2014-05-12 08:05:21,1399881921,60.44186,-3.49021,10,2,2014-05-12 08:05:14,1399881914,10.007,27,10.8,0,0,60.4255,-3.5332,3,5
211,2014-05-12 09:05:10,1399885510,60.43994,-3.56274,5,1,2014-05-12 09:05:06,1399885506,10.007,33,10.8,0,0,60.431,-3.5146,3,5
212,2014-05-12 10:06:35,1399889195,60.43994,-3.56274,3,1,2014-05-12 10:05:09,1399889109,10.05,33,10.8,0,0,60.4358,-3.5013,85,2
213,2014-05-12 11:05:10,1399892710,60.44374,-3.41767,3,1,2014-05-12 11:05:14,1399892714,10.093,33,10.8,0,0,60.441,-3.4922,3,5
214,2014-05-12 12:05:11,1399896311,60.52701,-5.2538,116,1,2014-05-12 12:05:11,1399896311,10.136,33,10.8,0,0,60.4451,-3.4882,3,5
215,2014-05-12 13:05:12,1399899912,60.43994,-3.56274,2,2,2014-05-12 13:05:16,1399899916,10.179,31,10.8,0,0,60.4485,-3.4871,3,5
216,2014-05-12 14:05:26,1399903526,60.44374,-3.41767,3,2,2014-05-12 14:05:07,1399903507,10.179,31,10.8,0,0,60.4515,-3.4853,18,4